This is the latest recevied weather packets stored in our database for station/object KT2UU-13. If no packets are shown the sender has not sent any weather packets the latest 10 day(s).
| Time | Temp. | Humidity | Pressure | Rain* | Wind** | Luminosity | Snow |
|---|---|---|---|---|---|---|---|
| 1777756201 | 18.89° C | 35% | 1014.9 hPa | 0 mm | - | - | - |
| 1777755897 | 19.44° C | 37% | 1014.7 hPa | 0 mm | - | - | - |
| 1777755594 | 18.89° C | 35% | 1015.1 hPa | 0 mm | - | - | - |
| 1777755290 | 19.44° C | 35% | 1014.9 hPa | 0 mm | - | - | - |
| 1777754988 | 20° C | 38% | 1014.7 hPa | 0 mm | - | - | - |
| 1777754684 | 20° C | 38% | 1014.9 hPa | 0 mm | - | - | - |
| 1777754383 | 19.44° C | 37% | 1014.8 hPa | 0 mm | - | - | - |
| 1777754080 | 19.44° C | 36% | 1015.2 hPa | 0 mm | - | - | - |
| 1777753776 | 19.44° C | 37% | 1015 hPa | 0 mm | - | - | - |
| 1777753473 | 18.89° C | 38% | 1015.1 hPa | 0 mm | - | - | - |
| 1777753171 | 18.89° C | 37% | 1015.3 hPa | 0 mm | - | - | - |
| 1777752867 | 18.89° C | 37% | 1015 hPa | 0 mm | - | - | - |
| 1777752564 | 18.89° C | 37% | 1014.9 hPa | 0 mm | - | - | - |
| 1777752259 | 18.89° C | 38% | 1015 hPa | 0 mm | - | - | - |
| 1777751957 | 18.33° C | 37% | 1015.1 hPa | 0 mm | - | - | - |
| 1777751654 | 18.33° C | 37% | 1014.9 hPa | 0 mm | - | - | - |
| 1777751350 | 18.33° C | 36% | 1015.4 hPa | 0 mm | - | - | - |
| 1777751047 | 17.78° C | 35% | 1015.1 hPa | 0 mm | - | - | - |
| 1777750743 | 18.33° C | 34% | 1015.5 hPa | 0 mm | - | - | - |
| 1777750440 | 18.89° C | 37% | 1014.8 hPa | 0 mm | - | - | - |
| 1777750135 | 18.89° C | 35% | 1015 hPa | 0 mm | - | - | - |
| 1777749833 | 18.89° C | 33% | 1015 hPa | 0 mm | - | - | - |
| 1777749530 | 18.33° C | 37% | 1015.1 hPa | 0 mm | - | - | - |
| 1777749228 | 18.89° C | 34% | 1015.1 hPa | 0 mm | - | - | - |
| 1777748925 | 18.89° C | 35% | 1015 hPa | 0 mm | - | - | - |
* Rain latest hour (hover to see other rain measurements)
** Current wind speed in m/s (hover to see current wind gust speed)